QPF
0.00 0.00 0.00 0.00 0.00 0.00 0.00 0.00 0.00 0.00 0.00 0.00 0.00 0.00 0.00 0.00 0.00 0.00 0.00 0.00 0.00 0.00 0.00 0.00 0.00 0.00 0.00 0.00 0.00 0.00 0.00 0.00 0.00 0.00 0.00 0.00 0.00 0.00 0.00 0.00 0.00 0.00 0.00 0.00
0.00 0.00 0.00 0.00 0.00 0.00 0.00 0.00 0.00 0.00 0.00 0.00 0.00 0.00 0.00 0.00 0.00 0.00 0.00 0.00 0.00 0.00 0.00 0.00 0.00 0.00 0.00 0.00 0.00 0.00 0.00 0.00 0.00 0.00 0.00 0.00 0.00 0.00 0.00 0.00 0.00 0.00 0.00 0.00
0.00 0.00 0.00 0.00 0.00 0.00 0.00 0.00 0.00 0.00 0.00 0.00 0.00 0.00 0.00 0.00 0.00 0.00 0.00 0.00 0.00 0.00 0.00 0.00 0.00 0.00 0.00 0.00 0.00 0.00 0.00 0.00 0.00 0.00 0.00 0.00 0.00 0.00 0.00 0.00 0.00 0.00 0.00 0.00
0.00 0.00 0.00 0.00 0.00 0.00 0.00 0.00 0.00 0.00 0.00 0.00 0.00 0.00 0.00 0.00 0.00 0.00 0.00 0.00 0.00 0.00 0.00 0.00 0.00 0.00 0.00 0.00 0.00 0.00 0.00 0.00 0.00 0.00 0.00 0.00 0.00 0.00 0.00 0.00 0.00 0.00 0.00 0.00
0.00 0.00 0.00 0.00 0.00 0.00 0.00 0.00 0.00 0.00 0.00 0.00 0.00 0.00 0.00 0.00 0.00 0.00 0.00 0.00 0.00 0.00 0.00 0.00 0.00 0.00 0.00 0.00 0.00 0.00 0.00 0.00 0.00 0.00 0.00 0.00 0.00 0.00 0.00 0.02 0.01 0.00 0.00 0.01
0.00 0.00 0.00 0.00 0.00 0.00 0.00 0.00 0.00 0.00 0.00 0.00 0.00 0.00 0.00 0.00 0.00 0.00 0.00 0.00 0.00 0.00 0.00 0.00 0.00 0.00 0.00 0.00 0.00 0.00 0.00 0.00 0.00 0.00 0.00 0.00 0.00 0.00 0.00 0.00 0.01 0.01 0.03 0.10
0.00 0.00 0.00 0.00 0.00 0.00 0.00 0.00 0.00 0.00 0.00 0.00 0.00 0.00 0.00 0.00 0.00 0.00 0.00 0.00 0.00 0.00 0.00 0.00 0.00 0.00 0.00 0.00 0.00 0.00 0.00 0.00 0.00 0.00 0.00 0.00 0.00 0.00 0.00 0.00 0.00 0.00 0.02 0.04
0.00 0.00 0.00 0.00 0.00 0.00 0.00 0.00 0.00 0.00 0.00 0.00 0.00 0.00 0.00 0.00 0.00 0.00 0.00 0.00 0.00 0.00 0.00 0.00 0.00 0.00 0.00 0.00 0.00 0.00 0.00 0.00 0.00 0.00 0.00 0.00 0.00 0.00 0.00 0.00 0.00 0.00 0.00 0.01
0.00 0.00 0.00 0.00 0.00 0.00 0.00 0.00 0.00 0.00 0.00 0.00 0.00 0.00 0.00 0.00 0.00 0.00 0.00 0.00 0.00 0.00 0.00 0.00 0.00 0.00 0.00 0.00 0.00 0.00 0.00 0.00 0.00 0.00 0.00 0.00 0.00 0.00 0.00 0.00 0.00 0.00 0.00 0.00
0.00 0.00 0.00 0.00 0.00 0.00 0.00 0.00 0.00 0.00 0.00 0.00 0.00 0.00 0.00 0.00 0.00 0.00 0.00 0.00 0.00 0.00 0.00 0.00 0.00 0.00 0.00 0.00 0.00 0.00 0.00 0.00 0.00 0.00 0.00 0.00 0.00 0.00 0.00 0.00 0.00 0.00 0.00 0.00
0.00 0.00 0.00 0.00 0.00 0.00 0.00 0.00 0.00 0.00 0.00 0.00 0.00 0.00 0.00 0.00 0.00 0.00 0.00 0.00 0.00 0.00 0.00 0.00 0.00 0.00 0.00 0.00 0.00 0.00 0.00 0.00 0.00 0.00 0.00 0.00 0.00 0.00 0.00 0.00 0.00 0.00 0.00 0.00
0.00 0.00 0.00 0.00 0.00 0.00 0.00 0.00 0.00 0.00 0.00 0.00 0.00 0.00 0.00 0.00 0.00 0.00 0.00 0.00 0.00 0.00 0.00 0.00 0.00 0.00 0.00 0.00 0.00 0.00 0.00 0.00 0.00 0.00 0.00 0.00 0.00 0.00 0.00 0.00 0.00 0.00 0.00 0.00
0.00 0.00 0.00 0.00 0.00 0.00 0.00 0.00 0.00 0.00 0.00 0.00 0.00 0.00 0.00 0.00 0.00 0.00 0.00 0.00 0.00 0.00 0.00 0.00 0.00 0.00 0.00 0.00 0.00 0.00 0.00 0.00 0.00 0.00 0.00 0.00 0.00 0.00 0.00 0.00 0.00 0.00 0.00 0.00
0.00 0.00 0.00 0.00 0.00 0.00 0.00 0.00 0.00 0.00 0.00 0.00 0.00 0.00 0.00 0.00 0.00 0.00 0.00 0.00 0.00 0.00 0.00 0.00 0.00 0.00 0.00 0.00 0.00 0.00 0.00 0.00 0.00 0.00 0.00 0.00 0.00 0.00 0.00 0.00 0.00 0.00 0.00 0.00
0.00 0.00 0.00 0.00 0.00 0.00 0.00 0.00 0.00 0.00 0.00 0.00 0.00 0.00 0.00 0.00 0.00 0.00 0.00 0.00 0.00 0.00 0.00 0.00 0.00 0.00 0.00 0.00 0.00 0.00 0.00 0.00 0.00 0.00 0.00 0.00 0.00 0.00 0.00 0.00 0.00 0.00 0.00 0.00
0.00 0.00 0.00 0.00 0.00 0.00 0.00 0.00 0.00 0.00 0.00 0.00 0.00 0.00 0.00 0.00 0.00 0.00 0.00 0.00 0.00 0.00 0.00 0.00 0.00 0.00 0.00 0.00 0.00 0.00 0.00 0.00 0.00 0.00 0.00 0.00 0.00 0.00 0.00 0.00 0.00 0.00 0.00 0.00
0.00 0.00 0.00 0.00 0.00 0.00 0.00 0.00 0.00 0.00 0.00 0.00 0.00 0.00 0.00 0.00 0.00 0.00 0.00 0.00 0.00 0.00 0.00 0.00 0.00 0.00 0.00 0.00 0.00 0.00 0.00 0.00 0.00 0.00 0.00 0.00 0.00 0.00 0.00 0.00 0.00 0.00 0.00 0.00
0.00 0.00 0.00 0.00 0.00 0.00 0.00 0.00 0.00 0.00 0.00 0.00 0.00 0.00 0.00 0.00 0.00 0.00 0.00 0.00 0.00 0.00 0.00 0.00 0.00 0.00 0.00 0.00 0.00 0.00 0.00 0.00 0.00 0.00 0.00 0.00 0.00 0.00 0.00 0.00 0.00 0.00 0.00 0.00
0.00 0.00 0.00 0.00 0.00 0.00 0.00 0.00 0.00 0.00 0.00 0.00 0.00 0.00 0.00 0.00 0.00 0.00 0.00 0.00 0.00 0.00 0.00 0.00 0.00 0.00 0.00 0.00 0.00 0.00 0.00 0.00 0.00 0.00 0.00 0.00 0.00 0.00 0.00 0.00 0.00 0.00 0.00 0.00
0.00 0.00 0.00 0.00 0.00 0.00 0.00 0.00 0.00 0.00 0.00 0.00 0.00 0.00 0.00 0.00 0.00 0.00 0.00 0.00 0.00 0.00 0.00 0.00 0.00 0.00 0.00 0.00 0.00 0.00 0.00 0.00 0.00 0.00 0.00 0.00 0.00 0.00 0.00 0.00 0.00 0.00 0.00 0.00
0.00 0.00 0.00 0.00 0.00 0.00 0.00 0.00 0.00 0.00 0.00 0.00 0.00 0.00 0.00 0.00 0.00 0.00 0.00 0.00 0.00 0.00 0.00 0.00 0.00 0.00 0.00 0.00 0.00 0.00 0.00 0.00 0.00 0.00 0.00 0.00 0.00 0.00 0.00 0.00 0.00 0.00 0.00 0.00
0.00 0.00 0.00 0.00 0.00 0.00 0.00 0.00 0.00 0.00 0.00 0.00 0.00 0.00 0.00 0.00 0.00 0.00 0.00 0.00 0.00 0.00 0.00 0.00 0.00 0.00 0.00 0.00 0.00 0.00 0.00 0.00 0.00 0.00 0.00 0.00 0.00 0.00 0.00 0.00 0.00 0.00 0.00 0.00
0.00 0.00 0.00 0.00 0.00 0.00 0.00 0.00 0.00 0.00 0.00 0.00 0.00 0.00 0.00 0.00 0.00 0.00 0.00 0.00 0.00 0.00 0.00 0.00 0.00 0.00 0.00 0.00 0.00 0.00 0.00 0.00 0.00 0.00 0.00 0.00 0.00 0.00 0.00 0.00 0.00 0.00 0.00 0.00
0.00 0.00 0.00 0.00 0.00 0.00 0.00 0.00 0.00 0.00 0.00 0.00 0.00 0.00 0.00 0.00 0.00 0.00 0.00 0.00 0.00 0.00 0.00 0.00 0.00 0.00 0.00 0.00 0.00 0.00 0.00 0.00 0.00 0.00 0.00 0.00 0.00 0.00 0.00 0.00 0.00 0.00 0.00 0.00
0.00 0.00 0.00 0.00 0.00 0.00 0.00 0.00 0.00 0.00 0.00 0.00 0.00 0.00 0.00 0.00 0.00 0.00 0.00 0.00 0.00 0.00 0.00 0.00 0.00 0.00 0.00 0.00 0.00 0.00 0.00 0.00 0.00 0.00 0.00 0.00 0.00 0.00 0.00 0.00 0.00 0.00 0.00 0.00
0.00 0.00 0.00 0.00 0.00 0.00 0.00 0.00 0.00 0.00 0.00 0.00 0.00 0.00 0.00 0.00 0.00 0.00 0.00 0.00 0.00 0.00 0.00 0.00 0.00 0.00 0.00 0.00 0.00 0.00 0.00 0.00 0.00 0.00 0.00 0.00 0.00 0.00 0.00 0.00 0.00 0.00 0.00 0.00
MSLP
1015.55 1016.32 1016.28 1016.00 1016.13 1016.03 1016.05 1016.38 1016.32 1015.86 1015.89 1016.13 1015.68 1014.72 1013.45 1013.80 1014.07 1014.22 1014.55 1015.12 1015.45 1015.67 1015.74 1015.96 1016.24 1016.30 1016.13 1015.76 1015.44 1014.94 1014.35 1013.63 1012.88 1012.07 1011.47 1010.55 1009.89 1009.22 1008.89 1008.65 1008.43 1008.49 1008.47 1008.70
1016.29 1016.08 1015.63 1015.81 1016.04 1016.26 1016.25 1016.39 1016.51 1016.25 1016.27 1016.45 1015.99 1014.37 1012.99 1013.01 1013.14 1013.25 1013.77 1014.48 1015.00 1015.52 1015.79 1016.11 1016.30 1016.33 1016.21 1015.86 1015.40 1014.83 1014.22 1013.48 1012.88 1012.33 1011.66 1010.93 1009.83 1008.87 1008.50 1008.27 1008.07 1007.99 1008.01 1008.27
1016.02 1015.52 1015.39 1015.62 1016.04 1016.33 1016.44 1016.66 1016.81 1017.03 1016.80 1016.88 1016.75 1014.47 1013.17 1012.93 1012.95 1012.88 1013.28 1013.83 1014.54 1015.21 1015.72 1016.09 1016.25 1016.39 1016.30 1015.72 1015.29 1014.88 1014.25 1013.59 1012.91 1012.29 1011.43 1010.70 1009.42 1008.43 1008.19 1007.84 1007.74 1007.72 1007.76 1007.81
1015.96 1015.39 1015.46 1015.71 1015.99 1016.31 1016.72 1016.54 1016.92 1017.30 1017.86 1018.26 1017.83 1016.98 1014.25 1013.37 1013.13 1012.89 1013.23 1013.74 1014.40 1015.09 1015.70 1016.10 1016.21 1016.30 1016.24 1015.64 1015.22 1014.85 1014.26 1013.60 1012.93 1012.44 1011.65 1010.94 1009.83 1008.67 1007.90 1007.42 1007.47 1007.46 1007.61 1007.67
1015.62 1015.56 1015.69 1015.88 1015.91 1016.12 1016.60 1016.83 1017.28 1017.74 1018.54 1019.05 1018.76 1018.87 1014.02 1013.67 1013.02 1012.85 1013.21 1013.87 1014.56 1015.12 1015.59 1015.96 1016.21 1016.37 1016.07 1015.53 1015.27 1014.98 1014.28 1013.73 1013.17 1012.59 1012.05 1011.25 1010.12 1009.08 1007.90 1007.29 1007.42 1007.58 1007.53 1007.67
1015.87 1015.65 1015.67 1015.80 1016.18 1016.30 1016.77 1017.25 1017.91 1018.57 1019.17 1019.49 1018.98 1018.81 1014.98 1013.77 1012.83 1012.70 1013.09 1013.76 1014.50 1015.32 1015.73 1015.97 1016.19 1016.41 1016.16 1015.47 1015.16 1014.95 1014.37 1013.95 1013.42 1012.87 1012.27 1011.62 1010.68 1009.73 1008.72 1008.26 1008.09 1007.95 1007.84 1007.93
1016.16 1015.91 1015.78 1015.80 1016.43 1016.80 1017.08 1017.71 1018.65 1019.33 1019.62 1019.10 1018.66 1018.59 1014.00 1012.66 1012.43 1012.53 1012.90 1013.71 1014.42 1015.29 1015.86 1016.07 1016.36 1016.57 1016.34 1015.78 1015.34 1015.01 1014.51 1014.18 1013.76 1013.26 1012.63 1012.05 1011.23 1010.51 1009.80 1009.26 1009.06 1008.82 1008.93 1009.18
1016.00 1016.23 1015.65 1015.61 1015.90 1016.36 1017.22 1017.54 1018.18 1018.84 1019.60 1018.89 1018.30 1016.45 1012.37 1011.82 1011.91 1012.19 1012.65 1013.54 1014.61 1015.48 1015.97 1016.17 1016.51 1016.68 1016.58 1016.10 1015.59 1015.19 1014.78 1014.46 1014.13 1013.64 1013.11 1012.71 1011.92 1011.55 1010.91 1010.29 1009.81 1009.86 1009.85 1010.06
1015.24 1015.44 1015.64 1015.67 1015.81 1016.37 1017.28 1017.60 1017.68 1018.51 1019.78 1018.84 1016.43 1014.06 1011.38 1011.33 1011.75 1012.30 1013.12 1014.07 1014.80 1015.31 1015.89 1016.18 1016.39 1016.74 1016.86 1016.45 1015.78 1015.37 1015.10 1014.77 1014.53 1014.15 1013.72 1013.37 1012.82 1012.40 1012.05 1011.34 1010.92 1010.80 1010.59 1010.79
1013.79 1015.12 1015.92 1015.98 1016.04 1016.52 1016.70 1017.20 1017.87 1018.32 1018.74 1017.90 1015.46 1014.01 1011.73 1011.06 1011.42 1012.10 1013.15 1013.90 1014.58 1015.12 1015.53 1015.98 1016.35 1016.67 1016.99 1016.73 1015.97 1015.52 1015.30 1015.01 1014.83 1014.52 1014.24 1013.99 1013.66 1013.37 1013.08 1012.71 1012.07 1011.85 1011.85 1011.87
1013.39 1014.16 1016.41 1016.34 1015.97 1016.00 1017.06 1017.18 1017.46 1017.60 1017.53 1016.97 1015.70 1012.06 1009.98 1010.15 1010.58 1011.47 1012.47 1013.32 1014.04 1014.71 1015.28 1015.59 1016.00 1016.50 1016.94 1016.90 1016.21 1015.88 1015.56 1015.29 1015.09 1014.77 1014.72 1014.44 1014.35 1014.20 1013.74 1013.71 1013.89 1013.55 1013.50 1013.52
1013.05 1014.09 1015.68 1016.03 1015.88 1015.84 1016.16 1016.45 1016.65 1016.85 1017.19 1016.67 1015.39 1011.75 1009.37 1009.66 1010.12 1010.96 1011.68 1012.69 1013.52 1014.29 1014.98 1015.54 1015.83 1016.27 1016.86 1017.11 1016.46 1016.07 1015.86 1015.57 1015.52 1015.20 1015.04 1014.98 1014.82 1014.60 1014.48 1014.51 1014.41 1014.59 1014.65 1014.58
1012.35 1013.73 1015.30 1015.95 1016.51 1016.38 1016.14 1016.09 1016.18 1016.34 1016.33 1015.85 1014.69 1011.26 1009.57 1009.73 1010.06 1010.45 1011.20 1012.01 1012.81 1013.77 1014.65 1015.37 1015.88 1016.02 1016.60 1016.98 1016.83 1016.14 1016.05 1015.87 1015.80 1015.70 1015.57 1015.56 1015.61 1015.33 1015.20 1015.22 1015.41 1015.41 1015.54 1015.92
1011.83 1012.96 1013.66 1014.42 1014.41 1014.77 1015.76 1015.63 1015.78 1015.78 1015.99 1014.76 1012.98 1010.91 1009.63 1009.45 1009.74 1010.10 1010.80 1011.55 1012.30 1013.19 1013.82 1014.57 1015.47 1015.58 1016.17 1016.56 1016.88 1016.29 1016.22 1016.17 1016.09 1016.19 1016.19 1016.39 1016.45 1016.45 1016.28 1016.04 1016.03 1016.13 1016.23 1016.34
1012.44 1013.39 1013.94 1014.26 1014.45 1014.65 1014.78 1015.03 1015.30 1015.13 1013.90 1013.52 1011.53 1010.52 1007.63 1008.65 1009.11 1009.37 1009.88 1010.94 1011.89 1012.51 1013.23 1013.66 1014.33 1014.98 1015.45 1016.22 1016.67 1016.44 1016.23 1016.46 1016.46 1016.63 1016.86 1017.26 1017.43 1017.28 1017.16 1016.91 1016.99 1017.09 1017.26 1017.40
1012.91 1013.88 1014.38 1014.74 1014.77 1014.86 1014.88 1014.37 1014.41 1014.07 1013.43 1012.48 1011.42 1008.79 1008.08 1007.84 1008.34 1008.89 1009.36 1010.32 1011.03 1011.41 1011.77 1012.43 1013.22 1014.08 1014.56 1015.34 1015.83 1016.37 1016.18 1016.36 1016.76 1016.87 1017.29 1017.59 1017.97 1018.10 1018.07 1017.86 1017.83 1017.66 1017.99 1018.09
1013.09 1013.96 1014.80 1015.25 1015.19 1015.24 1014.27 1012.36 1012.36 1011.95 1011.45 1010.93 1010.84 1005.82 1007.03 1007.21 1008.01 1008.05 1008.54 1009.13 1009.55 1009.81 1010.36 1011.07 1011.49 1012.30 1013.04 1013.84 1014.69 1015.65 1015.96 1016.17 1016.61 1017.12 1017.26 1017.61 1017.84 1018.59 1018.98 1018.96 1018.87 1018.98 1018.84 1018.86
1012.85 1013.66 1014.37 1015.26 1015.60 1014.23 1010.44 1009.93 1009.76 1009.90 1009.03 1009.49 1008.44 1006.27 1006.65 1007.09 1007.48 1007.72 1007.62 1007.54 1007.90 1008.25 1008.86 1009.60 1010.29 1011.09 1011.79 1012.75 1013.90 1014.74 1015.70 1016.04 1016.35 1016.68 1017.18 1017.31 1017.61 1018.15 1018.85 1019.55 1019.68 1019.69 1019.62 1019.94
1012.09 1013.00 1014.12 1014.63 1014.64 1011.69 1009.48 1009.58 1009.30 1008.86 1007.57 1007.08 1007.29 1006.23 1006.37 1007.36 1007.70 1006.68 1005.95 1006.29 1006.42 1006.67 1007.06 1007.66 1008.42 1009.07 1010.39 1011.43 1012.66 1013.90 1015.02 1015.79 1016.14 1016.54 1016.74 1017.17 1017.13 1017.70 1018.29 1019.00 1019.86 1020.08 1020.25 1020.38
1011.36 1011.54 1012.78 1014.04 1013.58 1011.71 1009.16 1008.11 1008.01 1007.86 1006.66 1005.24 1005.73 1006.28 1006.93 1007.63 1007.90 1006.78 1006.30 1006.27 1006.15 1006.31 1006.43 1006.90 1007.69 1008.62 1009.72 1010.58 1011.67 1013.04 1013.99 1014.91 1015.51 1015.89 1016.23 1016.58 1017.05 1017.09 1017.60 1018.14 1018.70 1019.51 1020.23 1020.75
1011.31 1011.28 1011.40 1012.29 1012.16 1010.24 1008.19 1007.87 1007.98 1007.71 1005.86 1004.77 1005.16 1006.11 1007.00 1007.48 1007.13 1006.65 1006.37 1006.15 1006.08 1006.18 1006.15 1006.37 1006.92 1007.81 1008.61 1009.89 1010.79 1011.81 1012.84 1013.40 1013.94 1014.85 1015.71 1016.39 1016.61 1016.87 1017.26 1017.66 1018.28 1018.76 1019.45 1020.23
1009.61 1009.96 1010.24 1011.27 1011.07 1009.27 1007.33 1008.11 1007.38 1005.24 1004.88 1004.94 1005.40 1005.96 1006.61 1006.78 1006.76 1006.73 1006.58 1006.34 1006.27 1006.27 1006.28 1006.43 1006.76 1007.18 1008.09 1009.34 1010.36 1010.94 1011.51 1011.86 1012.99 1014.22 1015.03 1015.92 1016.47 1016.85 1017.07 1017.72 1018.39 1018.82 1019.16 1019.59
1008.60 1007.03 1007.78 1008.26 1006.87 1006.24 1006.34 1005.62 1005.13 1004.93 1004.96 1005.20 1005.40 1005.91 1006.36 1006.85 1006.93 1006.66 1006.60 1006.56 1006.48 1006.47 1006.64 1006.74 1007.02 1007.35 1007.82 1008.45 1009.03 1009.77 1010.33 1011.69 1012.54 1013.48 1014.58 1015.17 1016.07 1016.65 1017.18 1017.59 1017.90 1018.59 1019.01 1019.42
1007.72 1007.05 1007.04 1007.23 1005.70 1005.75 1005.73 1005.27 1005.15 1004.87 1005.32 1005.43 1005.42 1006.00 1006.43 1006.72 1006.80 1006.87 1006.75 1006.47 1006.63 1006.57 1006.70 1006.94 1007.38 1007.76 1007.89 1007.99 1008.43 1008.91 1009.76 1010.49 1011.71 1012.73 1013.66 1014.68 1015.32 1016.12 1016.82 1017.18 1017.61 1017.91 1018.37 1018.80
1006.76 1006.77 1006.37 1006.15 1005.28 1005.51 1005.10 1004.86 1004.18 1004.87 1005.05 1005.59 1005.72 1006.09 1006.15 1006.50 1006.39 1006.54 1006.63 1006.51 1006.63 1006.46 1006.53 1006.86 1007.16 1007.42 1007.67 1007.91 1008.09 1008.64 1009.27 1010.19 1010.97 1011.71 1012.61 1013.62 1014.60 1015.23 1015.91 1016.38 1016.42 1016.65 1016.82 1017.17
1006.55 1005.70 1005.65 1004.52 1004.30 1004.11 1004.11 1003.66 1003.83 1004.91 1004.95 1004.91 1005.51 1005.70 1005.79 1006.19 1006.35 1006.49 1006.39 1006.51 1006.52 1006.34 1006.33 1006.64 1006.88 1007.06 1007.17 1007.47 1007.90 1008.29 1008.75 1009.39 1010.31 1011.29 1011.93 1012.60 1013.47 1014.39 1014.99 1015.52 1016.13 1016.15 1016.23 1016.49
Thickness
5646 5638 5621 5641 5639 5647 5647 5641 5640 5643 5646 5641 5641 5651 5667 5663 5652 5651 5645 5641 5636 5632 5629 5622 5615 5607 5599 5592 5579 5569 5558 5548 5543 5540 5535 5532 5527 5519 5508 5504 5508 5518 5526 5533
5631 5630 5642 5643 5637 5638 5640 5637 5631 5636 5639 5638 5637 5652 5671 5666 5659 5661 5655 5643 5637 5632 5623 5618 5611 5604 5595 5587 5577 5567 5556 5547 5540 5534 5528 5522 5518 5511 5495 5489 5496 5508 5520 5529
5625 5640 5639 5639 5634 5632 5631 5622 5615 5630 5628 5631 5619 5648 5665 5666 5662 5662 5653 5648 5640 5630 5622 5617 5610 5601 5591 5586 5576 5566 5555 5544 5538 5533 5526 5519 5519 5514 5500 5496 5500 5509 5519 5528
5619 5631 5631 5630 5628 5626 5625 5628 5625 5626 5619 5612 5615 5619 5633 5653 5650 5661 5652 5645 5636 5628 5621 5612 5607 5600 5591 5586 5576 5565 5554 5544 5538 5531 5524 5520 5521 5519 5514 5513 5514 5517 5522 5531
5617 5616 5619 5620 5624 5623 5623 5621 5621 5618 5610 5608 5604 5583 5638 5640 5658 5660 5648 5639 5629 5622 5616 5610 5605 5598 5592 5585 5576 5565 5556 5544 5537 5532 5524 5521 5524 5523 5525 5525 5523 5523 5529 5536
5608 5613 5614 5615 5610 5616 5612 5611 5603 5594 5593 5591 5584 5585 5631 5620 5655 5658 5647 5636 5627 5617 5611 5607 5602 5595 5589 5585 5577 5566 5557 5544 5538 5534 5528 5524 5526 5528 5530 5526 5526 5528 5534 5541
5600 5603 5606 5607 5602 5604 5606 5600 5578 5587 5579 5606 5589 5585 5634 5654 5652 5652 5650 5632 5622 5613 5606 5602 5600 5591 5587 5583 5575 5568 5558 5546 5538 5535 5531 5528 5528 5530 5532 5531 5528 5531 5534 5538
5583 5588 5595 5602 5605 5601 5591 5599 5590 5594 5595 5605 5586 5604 5646 5650 5649 5639 5645 5630 5615 5608 5602 5599 5595 5589 5583 5581 5574 5567 5559 5549 5539 5536 5533 5529 5530 5528 5530 5532 5534 5532 5534 5536
5581 5595 5590 5595 5598 5597 5590 5588 5595 5574 5524 5562 5609 5626 5651 5645 5647 5639 5628 5617 5610 5606 5599 5596 5593 5586 5580 5577 5574 5568 5561 5551 5541 5536 5534 5530 5528 5527 5528 5530 5531 5534 5537 5537
5597 5580 5581 5584 5589 5586 5589 5585 5578 5553 5567 5580 5611 5618 5636 5654 5640 5633 5622 5613 5608 5604 5599 5594 5590 5584 5577 5575 5573 5570 5564 5555 5544 5537 5532 5531 5528 5526 5524 5528 5531 5532 5533 5535
5595 5588 5565 5575 5575 5579 5571 5573 5576 5576 5574 5591 5590 5634 5647 5651 5644 5633 5623 5615 5609 5602 5596 5593 5589 5583 5576 5572 5573 5569 5564 5557 5549 5542 5532 5531 5529 5527 5526 5525 5523 5525 5524 5525
5590 5572 5551 5568 5569 5572 5573 5575 5574 5583 5579 5560 5582 5613 5651 5646 5643 5629 5625 5617 5607 5602 5594 5587 5585 5581 5573 5569 5571 5568 5565 5559 5551 5545 5537 5532 5530 5530 5528 5525 5525 5523 5523 5524
5580 5539 5535 5568 5561 5559 5565 5567 5573 5565 5561 5563 5571 5619 5636 5631 5629 5627 5618 5611 5607 5599 5590 5584 5579 5578 5572 5567 5566 5568 5565 5559 5553 5547 5541 5533 5527 5527 5527 5525 5522 5521 5519 5516
5580 5552 5572 5583 5590 5563 5557 5560 5560 5574 5543 5579 5581 5614 5632 5632 5625 5626 5615 5611 5602 5597 5592 5584 5576 5577 5570 5567 5563 5566 5564 5559 5553 5547 5542 5532 5526 5523 5523 5524 5522 5519 5518 5518
5560 5545 5544 5560 5561 5563 5567 5562 5552 5564 5592 5586 5616 5610 5649 5628 5619 5619 5615 5608 5598 5594 5590 5588 5582 5576 5570 5564 5561 5563 5562 5556 5552 5545 5539 5531 5525 5522 5520 5521 5519 5516 5514 5513
5539 5521 5521 5524 5542 5542 5538 5553 5549 5563 5581 5581 5590 5615 5624 5620 5619 5617 5612 5605 5602 5600 5598 5593 5586 5578 5574 5567 5564 5560 5560 5556 5550 5546 5538 5532 5525 5519 5517 5518 5517 5518 5513 5513
5524 5505 5522 5550 5519 5503 5537 5548 5566 5577 5569 5593 5580 5640 5627 5625 5617 5620 5616 5607 5612 5610 5603 5598 5595 5588 5582 5574 5568 5561 5558 5555 5550 5542 5539 5533 5528 5519 5512 5511 5511 5510 5512 5510
5507 5508 5512 5516 5494 5541 5591 5573 5582 5587 5605 5592 5603 5629 5624 5619 5617 5613 5612 5617 5613 5616 5608 5602 5598 5591 5586 5577 5568 5562 5554 5552 5549 5545 5538 5535 5531 5524 5516 5507 5505 5505 5506 5502
5512 5504 5499 5510 5472 5542 5584 5560 5564 5574 5601 5601 5604 5616 5619 5608 5603 5615 5624 5619 5626 5622 5617 5611 5605 5601 5591 5582 5572 5563 5553 5548 5545 5542 5540 5534 5532 5527 5520 5513 5503 5500 5498 5497
5497 5508 5512 5470 5489 5509 5571 5574 5563 5579 5592 5608 5606 5607 5598 5590 5590 5604 5614 5614 5611 5612 5612 5607 5601 5595 5588 5581 5572 5564 5556 5549 5545 5541 5539 5535 5530 5528 5523 5518 5513 5504 5496 5491
5483 5489 5504 5484 5474 5504 5549 5557 5553 5563 5597 5602 5593 5589 5579 5581 5592 5600 5596 5602 5606 5605 5605 5604 5599 5593 5588 5576 5571 5566 5559 5556 5550 5543 5536 5530 5528 5526 5522 5518 5512 5508 5501 5493
5489 5491 5495 5478 5497 5524 5539 5534 5560 5585 5581 5580 5580 5579 5575 5579 5582 5584 5586 5591 5593 5594 5596 5593 5593 5590 5580 5569 5564 5562 5561 5558 5548 5539 5534 5527 5522 5519 5517 5511 5506 5502 5499 5495
5478 5504 5500 5512 5530 5550 5533 5553 5554 5559 5565 5566 5567 5568 5570 5569 5571 5578 5579 5582 5583 5583 5581 5579 5579 5575 5574 5567 5566 5562 5560 5546 5539 5535 5530 5525 5516 5512 5508 5505 5501 5495 5492 5489
5457 5473 5481 5499 5531 5527 5528 5532 5536 5546 5544 5549 5555 5555 5556 5560 5561 5559 5560 5565 5568 5570 5569 5566 5564 5561 5562 5561 5558 5558 5549 5545 5536 5531 5526 5518 5515 5508 5501 5499 5496 5495 5490 5485
5452 5461 5468 5474 5505 5511 5524 5521 5538 5533 5527 5531 5531 5536 5542 5544 5547 5548 5550 5554 5557 5560 5561 5556 5555 5555 5554 5550 5550 5545 5538 5533 5530 5527 5521 5515 5510 5505 5499 5497 5496 5495 5494 5490
5436 5460 5476 5504 5517 5516 5527 5528 5524 5510 5519 5521 5522 5530 5532 5529 5533 5539 5539 5541 5544 5549 5545 5544 5545 5545 5544 5541 5539 5534 5530 5526 5521 5515 5513 5510 5504 5497 5495 5491 5487 5487 5487 5484